Flag for U.S.A. Weather past 2 weeks in Nashville, Tennessee, U.S.A.

Now
82 °F

Partly cloudy.


Feels Like: 86 °F
Forecast: 70 / 91 °F
Wind: 6 mph from North

Location: Nashville International Airport

Current Time: Aug 28, 2014 at 9:08:28 PM

Latest Report: Aug 28, 2014 at 7:53 PM


Visibility: 10 mi

Pressure: 29.98 "Hg

Humidity: 70%

Dew point: 71 °F

Location of NashvilleLocation

Historic Weather in Nashville — Graph

°F

Nashville temperature yesterday

Maximum temperature yesterday: 91 °F (at 3:53 PM)
Minimum temperature yesterday: 71 °F (at 3:53 AM)
Average temperature yesterday: 81 °F

Past Weeks' High & Low Weather Summary

 TemperatureHumidityPressure
High95 °F (Aug 23, 3:53 PM)97% (Aug 20, 9:53 PM)30.15 "Hg (Aug 20, 9:53 PM)
Low60 °F (Aug 14, 4:53 AM)35% (Aug 14, 4:53 PM)29.82 "Hg (Aug 18, 4:53 PM)
Average79 °F74%29.99 "Hg
* Reported Aug 13 7:53 PM — Aug 28 7:53 PM, Nashville, Weather by CustomWeather, © 2014

Note: Actual official high and low records may vary slightly from our data, if they occured in-between our weather recording intervals... More about our weather records

Advertising

Nashville weather history for previous 24 hours

 ConditionsComfort  
Time TempWeatherWind HumidityBarometerVisibility
7:53 PM
Aug 28
82 °FPartly cloudy.6 mph70%29.98 "Hg10 mi
6:53 PM85 °FBroken clouds.8 mph61%29.96 "Hg10 mi
5:53 PM89 °FBroken clouds.8 mph55%29.95 "Hg10 mi
4:53 PM92 °FScattered clouds.8 mph47%29.93 "Hg10 mi
3:53 PM93 °FScattered clouds.8 mph47%29.95 "Hg10 mi
2:53 PM93 °FScattered clouds.9 mph47%29.96 "Hg10 mi
1:53 PM92 °FScattered clouds.7 mph49%29.99 "Hg10 mi
12:53 PM91 °FScattered clouds.7 mph50%30.01 "Hg10 mi
11:53 AM90 °FPassing clouds.5 mph54%30.02 "Hg10 mi
10:53 AM87 °FPassing clouds.5 mph59%30.03 "Hg10 mi
9:53 AM85 °FSunny.5 mph63%30.03 "Hg9 mi
8:53 AM81 °FSunny.No wind74%30.04 "Hg9 mi
7:53 AM77 °FScattered clouds.No wind82%30.05 "Hg9 mi
6:53 AM73 °FScattered clouds.No wind90%30.04 "Hg8 mi
5:53 AM71 °FPassing clouds.No wind93%30.02 "Hg9 mi
4:53 AM72 °FClear.No wind93%30.01 "Hg9 mi
3:53 AM73 °FClear.No wind94%30.01 "Hg8 mi
2:53 AM74 °FClear.No wind91%30.01 "Hg9 mi
1:53 AM74 °FClear.No wind91%30.01 "Hg9 mi
12:53 AM75 °FClear.No wind88%30.01 "Hg9 mi
11:53 PM
Aug 27
75 °FClear.3 mph88%30.03 "Hg10 mi
10:53 PM77 °FClear.No wind82%30.03 "Hg10 mi
9:53 PM81 °FPassing clouds.3 mph72%30.04 "Hg10 mi
Weather by CustomWeather, © 2014

See weather overviewHow to use our weather pages